SCP
0 0 0 0 0 0 0 0 0 0 0 0 0 0 0 0 0 0 0 0 0 0 0 0 0 0 0 0 0 0 0 0
0 0 0 0 0 0 0 0 0 0 0 0 0 0 0 0 0 0 0 0 0 0 0 0 0 0 0 0 0 0 0 0
0 0 0 0 0 0 0 0 0 0 0 0 0 0 0 0 0 0 0 0 0 0 0 0 0 0 0 0 0 0 0 0
0 0 0 0 0 0 0 0 0 0 0 0 0 0 0 0 0 0 0 0 0 0 0 0 0 0 0 0 0 0 0 0
0 0 -0 0 0 0 0 0 0 0 0 0 0 0 0 0 0 0 0 0 0 0 0 0 0 0 0 0 0 0 0 0
0 0 0 0 0 0 0 0 0 0 0 0 0 0 0 0 0 0 0 0 0 0 0 0 0 0 0 0 0 0 0 0
0 0 0 0 0 0 0 0 0 0 0 0 0 0 0 0 0 0 0 0 0 0 0 0 0 0 0 0 0 0 0 0
0 0 0 0 0 0 0 0 0 0 0 0 0 0 0 0 0 0 0 0 0 0 0 0 0 0 0 0 0 0 0 0
0 0 0 0 0 0 0 0 0 0 0 0 0 0 0 0 0 0 0 0 0 0 0 0 0 0 0 0 0 0 0 0
0 0 0 0 0 0 0 0 0 0 0 0 0 0 0 0 0 0 0 0 0 0 0 0 0 0 0 0 0 0 0 0
0 0 0 0 0 0 0 0 0 0 0 0 0 0 0 0 0 0 0 0 0 0 0 0 0 0 0 0 0 0 0 0
0 0 0 0 0 0 0 0 0 0 0 0 0 0 0 0 0 0 0 0 0 0 0 0 0 0 0 0 0 0 0 0
0 0 0 0 0 0 0 0 0 0 0 0 0 0 0 0 0 0 0 0 0 0 0 0 0 0 0 0 0 0 0 0
-0 0 0 0 0 0 0 0 0 0 0 0 0 0 0 0 0 0 0 0 0 0 0 0 0 0 0 0 0 0 0 0
-0 -0 -0 -0 -0 0 0 0 0 0 0 0 0 0 0 0 0 0 0 0 0 0 0 0 0 0 0 0 0 0 0 0
-0 -0 -0 -0 0 0 0 0 0 0 0 0 0 0 0 0 0 0 0 0 0 0 0 0 0 0 0 0 0 0 0 0
-0 -0 0 0 0 0 0 0 0 0 0 0 0 0 0 0 0 0 0 0 0 0 0 0 0 0 0 0 0 0 0 0
-0 -0 0 0 0 0 0 0 0 0 0 0 0 0 0 0 0 0 0 0 0 0 0 0 0 0 0 0 0 0 0 0
-0 0 0 0 0 0 0 0 0 0 0 0 0 0 0 0 0 0 0 0 0 0 0 0 0 0 0 0 0 0 0 0
0 0 0 0 0 0 0 0 0 0 0 0 0 0 0 0 0 0 0 0 0 0 0 0 0 0 0 0 0 0 0 0
Wind_Speed_500mb
54 52 45 50 59 66 77 87 90 95 98 100 101 102 102 99 94 87 85 82 79 76 78 77 74 69 64 58 52 48 47 46
42 40 41 44 47 55 64 82 90 94 96 99 102 106 106 105 101 97 90 83 77 77 81 82 77 73 67 60 56 52 49 48
37 32 38 38 45 48 55 70 75 86 97 98 100 101 107 107 104 101 96 89 79 77 80 81 79 74 69 65 59 53 51 50
31 35 52 57 59 61 69 75 82 86 91 98 101 100 103 104 103 102 99 92 83 80 82 83 82 78 73 67 62 56 52 50
91 101 75 66 69 71 78 77 77 83 90 96 98 97 98 102 102 100 98 92 86 84 84 84 84 81 76 71 64 59 53 51
79 85 90 83 73 68 71 82 89 89 94 99 95 97 98 100 97 97 96 91 86 85 85 86 87 85 80 72 65 59 52 49
88 84 92 89 94 97 93 92 94 100 100 101 102 99 101 97 96 95 92 89 86 85 87 89 89 84 79 69 61 58 52 46
58 69 80 91 90 84 81 80 90 93 98 101 104 100 97 93 92 92 92 88 86 88 88 89 87 80 74 68 62 57 50 44
76 64 58 57 61 70 70 72 75 80 88 93 94 95 92 89 88 88 90 87 88 90 89 87 83 80 75 68 62 54 45 43
83 75 72 65 60 48 40 50 63 74 78 80 84 85 85 85 85 84 87 89 91 90 88 87 84 84 77 69 59 49 42 51
86 81 74 73 68 60 55 40 40 53 66 70 69 74 78 78 79 80 83 84 84 84 85 84 81 80 73 67 55 45 53 49
81 78 77 71 69 66 54 44 37 37 47 50 54 61 69 71 74 75 78 82 84 83 82 81 79 74 70 66 51 58 53 47
86 86 75 69 67 63 53 46 32 33 37 35 41 52 60 63 67 70 79 81 83 81 84 86 81 77 73 60 63 60 52 42
76 86 87 72 58 59 46 51 49 39 42 42 34 45 53 59 65 72 77 83 85 87 89 90 86 80 73 64 67 59 51 36
83 85 84 73 72 71 61 54 63 60 55 56 61 54 54 58 66 73 80 87 91 95 97 91 87 81 71 70 58 52 43 32
70 83 91 82 81 87 81 70 70 73 75 70 69 71 69 71 74 76 84 90 97 101 99 94 92 78 69 60 54 44 37 30
96 94 93 84 82 86 70 76 72 73 82 85 76 77 79 81 80 80 88 90 91 89 90 87 79 74 63 56 45 38 33 25
97 101 101 95 97 88 81 75 76 76 77 85 88 80 82 82 84 88 62 67 82 92 88 86 73 60 56 46 43 37 32 27
100 106 98 97 99 87 74 72 95 90 80 85 87 85 82 84 86 86 86 81 70 58 86 71 66 64 55 52 47 43 33 26
98 99 91 92 96 81 69 58 69 77 89 85 82 79 77 77 75 77 77 79 82 76 64 70 72 63 57 56 46 39 30 26
Wind_Direction_500mb
251 241 235 237 236 236 235 238 238 237 236 236 237 238 238 239 240 240 244 243 240 239 238 235 236 237 238 240 244 249 255 261
264 248 244 241 245 242 241 241 239 241 241 241 242 242 242 243 244 243 244 245 241 237 235 235 236 237 236 238 243 248 254 260
262 251 251 255 252 255 253 247 247 244 243 244 245 246 246 246 246 246 245 243 241 236 234 235 237 237 238 239 243 246 252 257
271 268 285 278 267 264 265 259 252 244 245 245 247 248 248 248 248 247 245 242 239 235 234 235 235 236 236 240 242 246 251 255
281 288 292 285 273 280 268 255 259 255 253 251 250 251 250 248 247 246 245 240 237 236 235 234 234 234 235 237 241 245 247 252
282 281 284 279 277 279 273 276 271 261 255 252 253 252 249 247 247 245 243 241 238 234 232 231 231 232 233 236 239 243 246 251
276 272 272 273 278 276 273 274 269 260 257 255 251 251 248 246 243 241 239 236 233 231 231 230 230 231 234 236 239 242 245 252
324 303 293 284 283 279 280 278 270 265 258 251 250 249 247 244 240 237 235 232 229 228 228 229 230 231 234 236 239 241 245 252
349 352 343 314 288 279 273 269 267 264 259 254 250 248 244 240 237 235 232 229 227 227 227 227 227 229 232 235 238 239 246 258
335 338 341 339 341 318 294 282 269 264 259 255 249 244 241 236 233 231 228 225 225 226 227 227 225 226 228 231 232 236 247 257
327 330 333 337 337 335 334 312 291 272 261 252 246 244 241 237 233 230 228 228 225 225 225 227 225 224 226 227 227 236 246 252
319 319 322 329 328 326 322 331 324 299 279 267 256 246 241 237 232 229 224 222 222 222 225 225 222 222 223 226 228 236 239 242
315 316 316 316 321 319 319 314 315 316 302 278 267 255 245 237 233 226 224 221 221 220 219 220 219 219 222 225 234 234 234 241
309 310 313 313 309 305 313 310 300 288 289 294 284 263 251 242 234 226 224 223 220 218 218 216 215 215 219 222 230 233 231 231
310 308 307 306 305 298 299 296 294 282 275 274 276 272 257 246 239 235 230 225 222 218 214 214 214 213 213 217 216 220 225 220
299 297 295 296 300 297 294 290 288 284 274 265 258 252 248 245 245 242 239 235 229 222 216 213 213 216 220 221 220 218 220 214
303 300 298 298 288 285 294 293 288 280 276 266 257 252 245 239 235 231 231 228 228 231 218 216 218 216 208 209 216 212 216 212
299 299 298 297 289 284 281 278 279 276 275 272 260 249 244 238 232 226 221 223 219 215 212 213 217 207 201 188 199 205 212 219
296 298 299 295 291 293 286 275 269 271 274 270 262 253 244 237 232 225 219 202 194 193 206 204 190 192 189 199 198 201 207 224
301 298 299 295 287 293 291 275 269 269 264 266 259 254 245 237 230 224 206 191 179 172 183 184 185 180 184 200 195 202 206 223
Wind_Speed_850mb
54 52 45 50 59 66 77 87 90 95 98 100 101 102 102 99 94 87 85 82 79 76 78 77 74 69 64 58 52 48 47 46
42 40 41 44 47 55 64 82 90 94 96 99 102 106 106 105 101 97 90 83 77 77 81 82 77 73 67 60 56 52 49 48
37 32 38 38 45 48 55 70 75 86 97 98 100 101 107 107 104 101 96 89 79 77 80 81 79 74 69 65 59 53 51 50
31 35 52 57 59 61 69 75 82 86 91 98 101 100 103 104 103 102 99 92 83 80 82 83 82 78 73 67 62 56 52 50
91 101 75 66 69 71 78 77 77 83 90 96 98 97 98 102 102 100 98 92 86 84 84 84 84 81 76 71 64 59 53 51
79 85 90 83 73 68 71 82 89 89 94 99 95 97 98 100 97 97 96 91 86 85 85 86 87 85 80 72 65 59 52 49
88 84 92 89 94 97 93 92 94 100 100 101 102 99 101 97 96 95 92 89 86 85 87 89 89 84 79 69 61 58 52 46
58 69 80 91 90 84 81 80 90 93 98 101 104 100 97 93 92 92 92 88 86 88 88 89 87 80 74 68 62 57 50 44
76 64 58 57 61 70 70 72 75 80 88 93 94 95 92 89 88 88 90 87 88 90 89 87 83 80 75 68 62 54 45 43
83 75 72 65 60 48 40 50 63 74 78 80 84 85 85 85 85 84 87 89 91 90 88 87 84 84 77 69 59 49 42 51
86 81 74 73 68 60 55 40 40 53 66 70 69 74 78 78 79 80 83 84 84 84 85 84 81 80 73 67 55 45 53 49
81 78 77 71 69 66 54 44 37 37 47 50 54 61 69 71 74 75 78 82 84 83 82 81 79 74 70 66 51 58 53 47
86 86 75 69 67 63 53 46 32 33 37 35 41 52 60 63 67 70 79 81 83 81 84 86 81 77 73 60 63 60 52 42
76 86 87 72 58 59 46 51 49 39 42 42 34 45 53 59 65 72 77 83 85 87 89 90 86 80 73 64 67 59 51 36
83 85 84 73 72 71 61 54 63 60 55 56 61 54 54 58 66 73 80 87 91 95 97 91 87 81 71 70 58 52 43 32
70 83 91 82 81 87 81 70 70 73 75 70 69 71 69 71 74 76 84 90 97 101 99 94 92 78 69 60 54 44 37 30
96 94 93 84 82 86 70 76 72 73 82 85 76 77 79 81 80 80 88 90 91 89 90 87 79 74 63 56 45 38 33 25
97 101 101 95 97 88 81 75 76 76 77 85 88 80 82 82 84 88 62 67 82 92 88 86 73 60 56 46 43 37 32 27
100 106 98 97 99 87 74 72 95 90 80 85 87 85 82 84 86 86 86 81 70 58 86 71 66 64 55 52 47 43 33 26
98 99 91 92 96 81 69 58 69 77 89 85 82 79 77 77 75 77 77 79 82 76 64 70 72 63 57 56 46 39 30 26
Wind_Direction_850mb
251 241 235 237 236 236 235 238 238 237 236 236 237 238 238 239 240 240 244 243 240 239 238 235 236 237 238 240 244 249 255 261
264 248 244 241 245 242 241 241 239 241 241 241 242 242 242 243 244 243 244 245 241 237 235 235 236 237 236 238 243 248 254 260
262 251 251 255 252 255 253 247 247 244 243 244 245 246 246 246 246 246 245 243 241 236 234 235 237 237 238 239 243 246 252 257
271 268 285 278 267 264 265 259 252 244 245 245 247 248 248 248 248 247 245 242 239 235 234 235 235 236 236 240 242 246 251 255
281 288 292 285 273 280 268 255 259 255 253 251 250 251 250 248 247 246 245 240 237 236 235 234 234 234 235 237 241 245 247 252
282 281 284 279 277 279 273 276 271 261 255 252 253 252 249 247 247 245 243 241 238 234 232 231 231 232 233 236 239 243 246 251
276 272 272 273 278 276 273 274 269 260 257 255 251 251 248 246 243 241 239 236 233 231 231 230 230 231 234 236 239 242 245 252
324 303 293 284 283 279 280 278 270 265 258 251 250 249 247 244 240 237 235 232 229 228 228 229 230 231 234 236 239 241 245 252
349 352 343 314 288 279 273 269 267 264 259 254 250 248 244 240 237 235 232 229 227 227 227 227 227 229 232 235 238 239 246 258
335 338 341 339 341 318 294 282 269 264 259 255 249 244 241 236 233 231 228 225 225 226 227 227 225 226 228 231 232 236 247 257
327 330 333 337 337 335 334 312 291 272 261 252 246 244 241 237 233 230 228 228 225 225 225 227 225 224 226 227 227 236 246 252
319 319 322 329 328 326 322 331 324 299 279 267 256 246 241 237 232 229 224 222 222 222 225 225 222 222 223 226 228 236 239 242
315 316 316 316 321 319 319 314 315 316 302 278 267 255 245 237 233 226 224 221 221 220 219 220 219 219 222 225 234 234 234 241
309 310 313 313 309 305 313 310 300 288 289 294 284 263 251 242 234 226 224 223 220 218 218 216 215 215 219 222 230 233 231 231
310 308 307 306 305 298 299 296 294 282 275 274 276 272 257 246 239 235 230 225 222 218 214 214 214 213 213 217 216 220 225 220
299 297 295 296 300 297 294 290 288 284 274 265 258 252 248 245 245 242 239 235 229 222 216 213 213 216 220 221 220 218 220 214
303 300 298 298 288 285 294 293 288 280 276 266 257 252 245 239 235 231 231 228 228 231 218 216 218 216 208 209 216 212 216 212
299 299 298 297 289 284 281 278 279 276 275 272 260 249 244 238 232 226 221 223 219 215 212 213 217 207 201 188 199 205 212 219
296 298 299 295 291 293 286 275 269 271 274 270 262 253 244 237 232 225 219 202 194 193 206 204 190 192 189 199 198 201 207 224
301 298 299 295 287 293 291 275 269 269 264 266 259 254 245 237 230 224 206 191 179 172 183 184 185 180 184 200 195 202 206 223